Wind_Speed
90 89 89 91 92 92 92 92 93 93 93 94 95 96 97 96 95 95 96 97 98 99 100 101 101 101 102 103 104 104 104 103 104 105 106 107 108 107 107 107 109 110 111 111 110 108 106 105 104 102 102 101 101 102 103 105 106 108 110 112 114 114 111 108 105 101 100 99 94 89 89 88 88 89 90 91 93 95 96 98 99 100 99 99 98
95 94 92 93 94 95 95 96 96 96 96 96 97 99 100 99 99 99 99 99 100 101 103 104 103 102 103 105 106 107 106 106 107 107 108 109 110 109 109 109 110 111 112 111 109 107 105 104 103 102 101 101 101 102 103 105 107 108 111 113 114 114 112 108 104 99 95 94 93 89 87 87 88 89 90 91 93 95 96 98 100 100 100 99 98
99 97 96 96 97 98 98 99 99 100 99 99 101 102 102 102 103 103 103 103 103 103 104 105 105 105 106 108 109 109 109 109 109 109 110 111 111 110 110 110 111 111 110 109 107 106 105 104 103 102 101 101 102 103 104 106 108 109 111 113 114 113 111 107 103 98 91 88 90 89 87 87 88 90 91 92 93 95 97 99 101 101 99 99 98
101 100 99 99 100 100 100 100 102 104 104 104 105 105 105 105 107 108 109 109 109 108 107 108 109 110 111 110 110 111 112 112 112 111 111 111 111 110 110 110 110 109 108 107 105 104 104 103 102 102 102 102 103 105 106 107 108 110 111 112 112 111 108 104 100 96 91 86 86 88 87 86 87 90 92 92 94 98 100 101 102 101 101 100 100
103 102 101 101 101 101 101 101 103 106 108 108 108 108 109 110 111 113 114 114 114 113 111 111 112 113 113 112 112 113 114 114 113 113 112 112 111 110 110 109 108 107 106 105 104 104 104 103 103 103 103 104 104 105 106 107 108 110 111 110 110 107 105 101 96 93 90 86 84 85 86 85 86 90 93 94 96 99 101 102 102 102 102 102 103
104 104 103 102 102 102 102 103 105 107 109 109 109 109 111 112 114 116 117 117 117 116 115 115 115 115 116 115 115 115 115 115 115 114 112 110 108 107 106 106 106 106 106 105 104 104 104 103 103 103 103 104 105 106 107 107 107 108 108 107 105 103 101 98 95 92 89 86 84 84 84 85 86 89 94 96 98 99 101 101 102 103 103 103 104
105 104 103 102 102 102 103 104 106 109 110 110 110 111 112 113 115 116 117 118 118 118 118 118 118 119 119 118 117 116 116 116 115 112 108 105 103 102 102 103 104 104 104 104 104 103 103 103 103 103 104 104 105 106 106 106 106 105 105 103 100 98 97 95 94 92 89 86 84 83 83 84 87 90 93 96 98 99 100 99 98 100 102 103 104
105 103 102 101 101 101 101 103 104 106 107 108 110 111 112 113 115 116 117 117 118 118 119 119 119 119 119 118 118 117 116 115 112 108 105 103 101 100 100 100 101 101 102 102 102 103 103 103 103 103 104 104 105 105 104 104 103 102 100 98 96 96 95 94 93 91 89 86 84 84 84 85 88 90 93 95 97 98 99 99 97 97 99 100 102
103 101 101 100 99 97 96 96 97 98 99 100 103 107 110 112 114 116 117 117 118 118 119 118 118 119 119 119 118 116 114 112 109 106 103 101 100 100 100 100 99 100 100 101 101 102 102 102 103 104 104 104 103 101 100 99 98 97 96 94 94 94 93 93 92 91 89 86 85 85 85 87 89 91 92 94 96 95 96 97 97 97 98 97 97
101 100 101 101 100 99 96 95 95 94 93 94 96 99 103 106 110 112 113 113 114 114 115 115 116 117 117 117 115 113 111 109 106 103 101 100 100 100 100 100 100 99 100 100 101 101 101 102 103 103 102 101 98 97 96 95 94 94 93 92 92 93 93 93 92 91 89 87 87 87 87 88 90 91 92 93 94 94 94 95 96 97 98 97 94
98 99 101 101 101 101 99 98 97 95 94 94 95 95 96 99 101 104 106 108 109 110 110 111 112 113 113 113 112 111 109 106 103 101 100 100 100 100 100 100 100 99 99 100 100 100 101 101 101 100 98 96 94 93 92 92 93 92 92 92 92 93 93 93 93 92 90 89 88 89 88 88 89 91 92 92 92 92 93 94 95 96 98 97 95
98 99 100 101 103 103 102 101 100 100 101 101 102 101 99 99 100 102 104 106 107 108 109 109 110 111 111 111 111 109 106 103 100 100 100 100 100 100 100 100 99 99 99 99 99 100 100 100 98 96 94 93 92 91 91 92 93 93 92 92 92 93 93 94 93 92 90 89 89 89 89 89 88 90 91 92 92 91 92 93 95 97 98 98 98
102 104 105 106 108 109 109 109 108 109 110 111 111 110 109 108 109 109 110 110 110 110 110 109 109 109 110 110 108 106 103 101 100 100 101 101 101 102 101 100 99 99 99 99 100 100 98 96 95 93 93 92 91 91 92 92 93 92 92 92 93 93 94 94 94 92 90 90 89 88 89 89 88 88 90 92 92 90 91 91 93 97 99 100 101
109 110 112 114 116 118 118 119 118 118 118 118 118 117 117 118 119 119 118 117 116 114 112 111 111 111 111 110 107 105 105 104 104 104 103 104 104 104 103 101 100 100 100 100 99 98 96 94 93 93 93 93 92 93 93 92 92 91 91 92 92 93 93 93 93 92 91 90 88 87 88 89 88 87 88 91 92 92 91 91 92 95 98 99 100
113 115 116 119 121 124 125 126 125 125 124 124 123 122 123 124 124 124 122 121 119 119 118 117 117 118 116 113 110 110 110 110 108 107 106 106 106 105 104 103 102 101 101 100 98 97 95 94 94 94 94 94 93 94 94 92 91 90 90 91 91 91 91 91 91 91 90 90 88 86 86 87 88 87 87 89 91 92 93 92 92 95 97 98 98
117 120 122 125 127 128 127 127 125 124 124 124 123 123 123 123 122 121 121 121 121 122 122 123 123 122 119 116 115 115 114 112 110 108 108 107 107 107 106 105 104 103 102 100 98 97 96 96 95 96 95 95 94 95 94 91 90 89 88 89 89 88 89 89 89 88 88 87 86 85 84 84 85 85 86 87 89 92 93 92 93 97 98 97 96
124 127 129 131 130 128 124 121 120 118 117 117 117 117 117 116 116 117 118 119 120 121 122 124 124 123 120 117 117 116 114 113 111 110 109 108 107 108 107 105 104 102 101 100 100 100 99 98 97 96 96 95 95 94 93 91 88 87 87 87 87 86 86 86 86 86 86 85 84 83 83 83 82 83 84 87 90 93 95 94 96 99 99 96 94
127 127 127 126 125 122 118 116 114 113 112 110 110 110 111 112 113 114 115 116 116 118 120 121 122 121 119 117 117 116 115 113 112 111 110 109 108 108 106 104 103 102 101 102 102 102 101 99 98 97 96 95 94 93 92 90 88 86 86 85 85 84 84 83 83 83 83 83 83 83 82 81 81 81 83 87 90 94 97 98 99 100 97 94 90
121 119 118 117 116 114 113 112 111 109 108 107 108 108 109 110 111 112 112 112 113 115 116 118 119 119 118 116 116 115 114 113 112 112 111 110 109 107 105 103 102 102 102 103 103 102 101 100 98 97 96 95 94 92 90 89 86 85 84 83 82 82 81 80 81 81 81 81 81 81 80 79 80 80 81 85 89 93 98 102 102 100 95 91 88
114 112 111 111 111 110 110 110 109 108 107 106 107 108 108 109 109 110 110 109 110 111 112 114 115 116 115 115 115 114 114 113 112 112 111 109 108 106 105 104 104 104 104 104 103 101 100 99 98 97 96 95 93 91 89 87 85 82 81 80 80 79 78 78 78 79 78 78 77 77 77 77 78 79 80 83 87 92 98 103 104 102 96 90 88
111 110 109 108 109 108 108 107 107 106 106 105 105 105 106 106 107 108 108 108 108 109 110 111 113 114 114 114 114 113 113 112 111 110 110 109 107 106 106 106 106 105 104 103 102 100 99 99 98 97 96 94 92 90 87 85 82 80 78 78 77 76 75 74 75 75 75 74 73 73 74 75 76 78 80 83 87 93 99 103 105 103 98 91 86
114 112 110 108 108 108 107 107 107 106 106 106 105 104 104 104 105 106 106 105 106 107 109 110 112 113 113 113 112 112 111 110 110 109 109 109 108 107 108 107 106 105 104 103 101 100 99 98 97 96 95 93 91 89 86 83 81 78 77 76 74 72 70 69 69 69 70 70 70 71 72 73 75 77 80 83 88 95 100 103 104 102 99 93 86
116 115 114 112 110 110 109 109 109 109 109 108 108 106 105 104 104 104 105 104 104 105 107 109 111 112 112 111 111 110 110 109 109 109 109 109 109 108 108 107 106 106 105 103 102 100 99 98 96 95 94 92 90 88 85 82 79 77 76 75 71 68 66 65 65 65 66 68 68 69 71 73 74 76 80 84 89 95 100 102 102 100 97 94 88
115 115 114 113 113 112 112 111 111 111 111 111 110 108 107 106 105 105 104 104 104 105 106 108 109 110 110 110 110 110 109 109 109 109 110 110 109 109 108 107 106 106 105 103 102 100 98 97 96 94 92 90 89 87 85 82 78 76 75 74 71 68 65 63 63 63 64 66 67 68 70 72 74 77 80 84 89 95 100 101 99 97 95 93 88
114 113 113 112 112 112 112 111 111 110 110 110 110 109 108 107 106 106 105 106 106 106 107 108 109 110 110 110 110 110 109 108 108 109 110 111 110 109 108 107 106 105 104 104 102 100 98 97 95 94 92 89 87 85 84 82 78 76 74 72 70 68 66 64 63 63 64 65 67 68 69 71 74 77 80 85 90 95 99 98 96 95 94 91 86
111 110 110 110 110 110 109 109 108 108 108 108 108 108 108 107 107 107 106 107 107 108 108 109 109 110 110 110 110 110 109 108 107 107 109 111 112 111 109 108 107 106 105 104 103 101 99 97 95 93 90 89 87 85 83 81 79 76 73 71 69 67 65 64 63 64 64 65 66 68 70 72 74 77 80 85 90 95 97 95 92 92 92 88 83
108 107 106 105 105 105 105 104 104 104 104 104 104 104 105 105 106 106 106 107 107 108 108 109 109 110 110 110 110 109 108 107 106 105 106 108 110 111 112 111 109 106 105 106 105 103 101 100 97 94 91 89 88 86 84 82 79 77 74 70 68 66 64 64 64 64 64 65 66 68 70 72 74 77 80 85 90 94 95 92 90 90 88 84 78
105 103 102 101 100 100 100 100 99 99 99 100 100 101 102 103 103 104 105 105 106 107 108 108 108 109 110 110 110 110 109 108 107 106 106 105 106 108 111 112 111 109 107 106 106 105 104 102 100 97 94 91 90 88 86 83 81 78 75 71 68 66 64 64 64 65 65 65 66 68 71 73 75 78 81 86 90 92 90 89 88 87 84 79 73
102 100 98 97 96 96 97 97 97 97 97 97 97 98 99 101 101 102 103 104 105 106 107 107 107 108 109 110 111 111 111 111 110 109 107 106 106 106 107 109 110 111 110 109 107 105 104 103 102 100 97 94 92 89 86 84 82 80 76 72 69 68 66 66 66 66 66 66 67 69 71 73 75 78 82 86 88 88 86 86 86 84 79 74 69
100 98 95 94 94 95 95 96 96 97 97 97 97 98 99 100 101 102 102 103 105 106 106 105 106 107 109 110 111 112 112 113 113 112 110 109 108 106 105 105 106 108 111 111 110 108 106 105 103 101 99 96 93 90 87 85 83 80 76 73 71 69 69 68 68 68 67 68 69 71 73 74 76 79 83 86 85 83 82 83 83 80 75 70 66
99 96 94 93 93 93 94 95 95 96 97 98 98 99 100 101 102 102 103 104 105 106 106 106 106 107 108 109 110 112 113 114 115 114 114 112 109 106 105 104 104 106 108 110 111 110 108 107 105 102 100 98 95 92 88 86 83 80 77 74 72 71 70 70 69 69 69 70 71 73 74 75 77 80 83 84 81 78 79 81 80 76 71 68 64
99 96 95 93 92 92 92 93 94 95 96 97 99 100 101 101 101 102 103 104 105 106 106 106 106 106 107 108 110 111 113 114 115 116 115 114 110 107 106 105 105 105 106 108 109 110 109 108 107 104 102 99 97 93 90 86 83 80 78 76 75 73 72 72 71 71 71 72 73 74 75 76 78 81 82 80 76 75 77 79 77 72 69 66 63
99 97 95 94 92 91 91 91 92 93 95 96 98 99 100 100 101 101 102 103 103 104 104 105 105 105 106 107 108 110 111 113 114 116 117 116 114 110 108 107 106 106 105 106 107 108 108 107 106 104 102 100 98 95 91 87 84 81 79 78 78 77 75 74 73 73 73 74 74 75 76 77 80 81 79 75 73 74 75 76 73 69 66 64 61
99 98 96 95 93 91 90 90 91 92 94 95 97 98 99 100 100 100 100 99 99 100 101 102 103 103 104 105 106 108 109 111 113 115 117 118 116 114 112 109 107 106 105 105 106 107 107 106 104 102 101 99 98 95 91 87 85 82 81 81 80 79 78 76 75 75 75 75 75 75 77 79 80 78 73 69 70 73 74 73 70 66 63 62 60
97 97 96 96 94 93 91 91 91 92 94 95 96 97 98 99 99 99 98 97 96 96 97 98 99 101 102 103 105 106 108 109 111 114 117 118 117 115 114 111 108 106 106 106 106 106 106 105 104 102 100 98 96 93 90 87 85 83 83 82 81 80 79 78 77 77 76 75 75 77 78 80 80 74 68 66 68 70 71 71 68 64 61 60 58
95 94 94 94 94 94 93 92 92 92 93 95 96 97 97 97 97 97 96 95 95 94 94 95 97 99 101 102 103 105 106 108 110 114 116 116 115 114 113 111 109 107 106 105 105 105 105 105 104 102 100 98 95 92 90 88 86 84 83 83 82 81 80 79 78 77 75 74 75 78 80 80 77 70 64 64 67 68 69 68 66 62 59 58 58
92 91 90 90 91 92 91 91 91 91 92 93 94 95 95 95 95 95 95 95 94 93 93 94 95 97 99 100 101 102 104 106 109 112 114 114 112 111 111 110 109 108 107 105 104 104 104 104 103 101 99 96 94 92 90 88 86 85 84 83 81 80 80 79 78 76 74 73 75 79 81 79 72 65 62 63 65 66 66 66 64 61 57 56 56
89 89 88 88 88 88 87 87 88 89 90 91 92 92 92 92 92 92 93 93 93 93 93 93 94 96 97 98 100 100 102 105 108 110 110 110 110 109 109 108 107 107 106 105 104 103 103 103 102 100 97 95 93 92 90 88 86 85 84 83 81 80 79 79 78 76 74 73 75 79 79 75 67 62 61 62 62 62 63 64 62 59 56 56 55
86 87 87 86 86 86 86 86 86 87 88 89 90 91 91 90 90 90 90 91 92 92 92 93 94 96 97 98 98 99 102 104 106 106 105 106 107 108 107 107 106 105 104 103 103 103 102 102 100 98 96 94 92 90 88 87 86 85 84 82 81 79 79 78 77 75 74 74 75 77 76 70 64 60 61 62 61 60 61 61 59 56 55 55 53
84 85 86 86 85 85 85 85 86 86 87 88 89 90 90 90 90 90 91 91 92 92 93 94 96 97 97 96 97 99 101 102 102 102 103 104 105 105 105 104 103 103 102 101 101 101 101 100 98 96 95 93 91 89 87 86 85 84 83 81 80 79 78 77 76 75 75 74 75 74 72 67 62 59 59 60 59 58 58 57 56 54 54 52 51
83 84 84 84 85 85 85 84 85 86 87 88 88 89 89 90 91 91 92 92 93 93 94 96 96 96 96 95 96 97 98 98 99 100 101 102 102 102 102 102 101 100 100 100 99 99 98 97 96 95 93 91 89 88 87 86 85 83 82 80 79 78 76 75 74 74 75 75 73 70 68 66 61 57 57 58 58 57 57 54 52 52 52 50 48
81 82 83 83 84 84 84 84 84 85 86 87 87 88 89 90 91 92 92 93 94 94 95 96 96 95 95 94 94 95 96 97 98 99 99 99 99 99 99 98 98 98 98 97 97 96 95 94 94 93 92 90 89 87 87 85 83 81 80 79 77 76 74 73 73 74 75 74 71 67 66 65 60 55 55 56 56 56 55 52 49 50 50 48 46
80 81 82 83 83 83 83 84 85 85 86 86 87 88 89 90 90 92 93 94 94 95 95 95 94 93 93 92 93 94 95 96 97 98 97 97 97 96 96 96 95 95 95 95 94 93 93 92 91 91 90 89 88 87 85 83 81 79 78 77 76 74 72 72 73 74 74 72 68 64 63 62 58 54 53 55 54 54 53 50 48 48 47 45 43
80 81 81 82 82 83 84 85 86 86 86 86 87 87 88 89 90 91 92 93 93 93 93 93 92 91 91 92 93 94 94 95 95 95 95 95 94 94 94 93 93 93 93 92 91 91 90 90 89 88 88 87 87 85 83 81 79 78 77 75 74 72 71 71 73 74 73 69 65 62 62 60 57 53 53 53 53 52 51 48 46 46 45 42 40
78 79 80 81 82 82 84 85 86 85 84 84 85 86 87 88 89 90 90 90 90 90 90 89 89 90 91 92 92 93 93 93 93 92 92 92 91 91 91 91 90 90 90 89 89 88 88 87 87 87 86 86 85 84 82 79 77 76 74 73 71 70 71 72 73 73 70 65 62 60 60 59 55 53 52 52 51 50 49 46 44 44 42 40 38
76 77 78 79 79 80 80 81 81 80 79 80 82 83 85 86 86 87 87 86 86 87 87 87 88 89 89 89 90 90 90 90 89 89 89 88 88 88 88 88 88 87 87 87 86 86 86 85 85 85 84 83 82 81 79 77 75 73 71 70 69 69 71 72 72 70 66 62 59 58 58 56 54 52 51 51 49 48 47 45 42 42 40 38 36
72 73 74 75 75 74 75 75 76 76 77 78 79 80 81 82 82 81 81 81 82 83 84 85 85 85 85 86 86 86 86 86 85 85 85 84 84 84 84 85 85 84 84 84 84 83 84 83 83 83 82 81 79 78 75 73 72 70 68 68 68 70 71 71 69 65 62 58 56 55 55 54 51 50 50 50 48 47 46 43 40 40 38 36 34
67 68 69 69 70 70 71 72 73 74 74 75 75 76 76 76 76 76 77 78 79 80 80 81 81 81 81 81 81 81 81 81 81 81 81 81 81 81 82 82 82 82 82 82 81 81 81 81 81 80 79 78 76 74 72 70 69 68 67 68 69 70 70 68 65 61 59 56 54 53 53 51 48 48 49 49 46 45 44 41 39 38 36 34 32
62 64 65 65 66 67 68 69 69 69 70 70 71 71 71 71 72 73 74 75 75 76 77 77 78 77 77 77 77 77 77 77 77 78 78 78 78 79 79 79 79 79 79 79 79 79 78 78 77 77 76 75 73 71 69 68 67 66 67 68 69 69 68 65 61 58 57 55 52 50 50 48 46 46 47 47 45 43 41 39 37 36 35 33 31
59 60 61 62 62 63 63 64 64 65 65 66 66 66 67 68 69 70 71 71 72 73 73 73 73 73 73 73 73 73 74 74 74 74 75 75 75 75 76 76 76 76 76 76 76 75 75 75 74 73 72 71 70 69 67 67 66 66 67 68 68 67 65 62 58 56 55 53 49 47 47 46 45 45 45 45 43 41 39 37 36 35 34 32 31
56 57 57 58 59 59 60 60 61 61 62 62 63 63 64 65 66 67 67 68 68 69 69 69 70 70 70 70 70 70 71 71 72 72 72 72 73 73 73 73 73 73 73 73 73 73 72 72 71 71 70 69 68 67 66 66 65 66 66 66 66 65 63 60 57 55 53 50 47 45 45 44 44 43 43 43 41 39 37 36 35 34 33 32 31
Wind_Direction
270 271 271 271 272 274 275 276 276 277 277 277 277 277 277 277 278 278 279 280 280 279 279 279 280 281 282 283 283 283 284 285 285 285 285 285 285 285 285 286 286 285 285 285 286 286 285 285 285 285 285 285 285 286 286 286 286 287 287 288 288 290 291 292 292 291 289 287 286 284 281 281 280 279 279 278 278 277 277 277 278 278 278 278 278
271 272 272 272 274 275 276 276 276 276 276 275 275 275 276 276 276 276 277 278 279 278 277 277 278 280 281 281 282 282 283 284 285 285 284 283 284 284 284 284 284 284 284 285 285 285 285 285 285 285 285 285 285 285 285 286 286 286 287 288 289 290 291 292 292 291 289 286 285 283 282 281 280 280 279 278 277 277 277 277 277 278 278 279 279
272 272 273 274 275 276 276 276 275 275 276 275 274 275 275 275 275 276 276 277 277 277 276 276 276 278 279 279 279 280 281 282 283 283 282 282 283 283 283 283 283 283 284 285 285 285 285 285 285 285 285 285 285 285 285 285 286 286 287 287 288 290 291 291 291 290 288 285 283 283 283 282 281 280 279 278 277 277 277 277 278 279 279 280 280
273 273 274 274 275 276 277 276 276 276 276 276 275 275 276 276 275 276 276 276 277 277 276 275 275 276 277 278 278 279 279 280 282 283 282 282 283 283 282 282 282 283 284 285 285 285 285 285 285 285 285 285 285 285 285 286 286 286 286 287 288 289 289 290 289 289 287 285 284 283 282 281 281 280 278 278 277 277 277 278 278 279 280 281 281
274 274 274 274 275 275 276 275 275 275 275 275 275 275 275 275 275 275 276 276 276 277 276 276 275 275 276 276 277 278 278 279 280 281 280 281 281 281 281 281 281 282 283 285 285 285 285 285 284 284 284 285 285 285 285 285 285 285 286 287 287 288 289 289 288 288 286 285 284 282 282 281 279 278 277 276 276 276 277 278 279 279 280 280 280
274 274 275 275 276 276 276 276 275 274 275 275 274 274 273 273 273 273 274 274 275 275 275 276 275 275 275 275 276 277 277 277 279 279 279 279 280 280 280 281 281 282 283 284 284 285 284 284 284 284 285 285 286 286 286 285 285 285 285 286 287 287 287 288 288 287 285 284 282 281 280 280 278 276 276 276 275 275 275 276 277 278 278 278 277
273 273 275 276 276 276 275 275 274 275 276 275 275 274 273 272 272 272 272 273 273 273 274 275 274 274 274 274 275 276 276 277 278 278 278 279 280 281 282 283 283 283 284 284 284 284 284 285 285 285 286 287 288 287 286 286 285 285 285 285 286 286 286 286 286 285 284 283 281 280 279 278 277 275 275 275 275 276 275 275 274 275 276 276 276
272 274 276 277 277 277 276 275 275 276 276 275 274 274 273 272 272 272 272 273 273 273 274 274 274 274 274 274 275 275 275 276 277 278 279 280 281 282 284 284 284 285 285 285 285 285 285 286 287 287 288 288 288 287 286 285 284 284 284 284 285 285 285 285 285 285 284 283 282 280 279 278 277 275 275 275 275 276 277 276 274 273 273 274 275
273 274 274 275 275 275 275 276 276 276 276 275 274 273 272 272 271 271 272 273 273 274 274 275 274 274 274 274 274 275 275 276 277 278 280 281 282 284 285 285 286 286 286 286 286 287 287 288 289 289 289 288 287 286 285 284 283 283 283 283 283 284 285 285 285 284 284 283 282 280 279 278 277 277 277 277 277 277 277 277 276 275 274 274 274
271 271 272 272 272 272 272 273 274 274 275 275 274 274 273 272 272 272 272 273 273 274 274 274 274 274 274 274 274 275 276 277 279 280 281 282 284 285 286 287 287 288 288 288 288 289 290 290 290 289 289 288 287 286 285 284 284 283 283 284 284 285 285 285 285 285 284 284 283 281 280 280 279 279 279 279 279 279 278 277 277 276 276 276 276
274 275 276 277 276 276 275 275 275 276 276 276 276 276 275 274 274 273 273 273 273 273 274 274 274 274 274 275 275 277 278 280 281 282 283 284 285 286 287 288 289 289 290 290 291 291 291 291 291 290 289 288 287 286 286 285 285 285 285 285 285 285 286 285 285 285 286 285 284 283 282 281 281 281 281 281 280 280 279 279 278 278 277 277 277
280 282 283 284 283 283 282 282 282 282 282 281 281 281 280 279 278 277 276 276 276 276 276 276 276 277 277 277 278 279 280 281 282 283 285 286 287 288 289 290 290 290 291 292 293 293 292 291 291 290 289 288 287 287 286 286 286 286 286 286 286 286 286 285 285 285 286 285 284 283 283 282 282 282 282 281 281 280 280 279 279 278 278 277 276
284 284 285 285 286 286 285 285 285 285 284 284 284 284 284 284 284 283 282 281 280 280 280 279 279 279 279 279 279 280 282 283 285 286 287 289 289 290 290 291 291 292 293 293 293 293 292 291 290 290 289 288 287 287 287 287 287 287 287 286 286 286 286 286 286 286 286 285 284 284 283 283 282 281 281 280 279 278 277 276 276 276 276 275 275
283 283 283 283 283 283 283 284 283 283 283 283 284 285 285 286 286 285 284 284 283 283 283 283 283 282 282 282 283 284 286 287 288 288 289 290 290 291 291 291 292 292 293 293 293 292 292 291 290 290 289 288 288 288 288 288 288 287 287 287 286 286 286 286 287 287 287 286 285 284 283 283 283 281 281 280 279 278 276 275 274 274 274 274 275
281 281 281 280 280 280 280 280 280 280 281 281 282 283 284 284 284 284 284 284 284 284 284 285 285 285 285 285 286 287 288 289 289 289 289 290 290 291 291 291 292 293 293 293 292 292 291 291 290 290 289 289 289 288 288 288 288 287 287 287 287 287 287 287 288 288 288 287 287 286 286 285 285 284 283 281 280 279 278 277 276 275 275 276 276
281 281 281 281 280 279 279 279 279 279 279 280 280 281 281 281 281 281 281 281 281 282 282 283 283 284 285 286 287 287 288 288 288 289 289 289 290 290 291 292 292 293 293 292 292 292 291 291 291 290 290 290 289 288 288 288 288 288 287 287 288 288 288 288 288 288 288 288 288 288 287 286 286 285 284 282 281 280 279 278 278 277 277 278 277
280 280 280 280 280 279 279 279 279 279 278 278 279 279 279 278 278 278 278 278 278 279 280 280 281 282 284 285 285 286 287 287 288 288 289 289 290 290 291 291 292 292 292 292 292 292 291 291 291 290 290 290 289 288 288 288 288 288 288 288 288 289 289 289 289 289 289 289 288 288 287 286 285 284 284 283 281 280 279 279 278 277 278 279 279
277 277 278 278 278 278 278 278 278 278 278 278 278 278 277 277 277 277 277 277 277 277 278 279 280 282 283 284 285 285 286 287 288 288 289 289 289 290 290 290 291 291 291 292 292 292 291 291 291 291 290 290 289 289 288 288 289 289 289 289 289 289 289 289 289 289 290 290 289 289 288 287 286 285 284 283 283 282 282 281 280 280 281 282 283
275 275 275 275 276 276 277 277 277 277 277 278 278 277 277 276 276 277 277 277 277 277 277 278 280 281 282 283 284 285 286 286 287 288 288 288 289 289 289 290 290 291 291 292 291 291 291 291 291 291 291 291 290 290 290 290 290 290 290 290 290 290 290 290 290 290 290 290 290 289 289 288 287 286 285 284 284 284 284 283 283 284 285 286 287
274 274 274 274 274 275 275 275 276 276 277 277 277 276 276 276 276 276 277 277 277 277 277 278 279 281 282 283 284 284 285 286 286 287 287 287 287 288 289 289 290 291 291 291 291 291 292 292 292 292 292 291 291 291 291 291 291 292 292 291 291 290 290 290 290 290 289 289 288 288 287 287 286 286 285 285 285 285 284 284 284 285 286 288 289
274 273 273 273 273 274 274 275 275 276 276 276 276 276 276 276 276 275 276 276 277 277 278 278 279 280 281 282 283 283 284 285 285 286 286 286 287 288 289 289 290 290 291 291 291 292 292 292 292 292 292 292 292 292 292 292 292 292 292 292 291 291 290 289 288 288 287 287 287 287 287 286 286 285 285 284 284 284 283 283 283 285 287 288 288
274 274 274 274 274 274 275 275 276 276 276 276 276 275 275 275 275 275 275 276 276 276 277 278 278 279 280 281 282 283 284 284 285 285 285 286 287 288 288 289 290 291 292 292 292 292 292 292 292 293 293 293 293 293 293 293 293 293 293 293 292 291 289 288 286 286 286 286 286 286 286 286 286 286 285 285 284 283 282 282 283 285 287 288 289
272 273 274 274 274 275 275 275 276 276 276 276 276 276 276 275 275 275 275 275 276 276 276 277 278 279 280 281 282 283 283 284 284 285 285 286 287 287 288 289 291 292 292 292 292 292 292 292 293 293 293 294 294 294 294 294 294 294 295 294 294 292 290 288 287 286 286 286 286 286 285 285 285 285 285 284 284 282 281 282 283 285 287 289 290
270 271 272 272 273 273 273 273 274 274 275 275 275 275 275 275 275 275 275 275 275 276 276 277 278 279 280 281 282 282 283 283 284 285 286 287 287 288 289 290 291 291 292 292 292 292 292 292 293 293 293 293 294 295 295 295 295 296 296 296 296 295 293 291 289 288 287 286 286 286 286 285 285 285 284 284 283 282 281 282 284 286 287 289 290
268 269 269 270 270 271 271 272 272 273 273 274 274 275 275 275 275 275 275 276 276 276 277 277 278 279 280 280 281 281 282 283 284 286 287 287 288 289 289 290 291 291 291 291 292 292 292 292 293 293 293 294 295 295 295 296 297 297 297 297 297 296 295 293 291 290 289 288 287 287 286 286 286 285 285 284 284 282 282 283 285 287 288 289 291
268 268 268 269 269 269 270 271 272 272 272 273 273 273 274 274 275 275 275 276 276 276 277 277 278 278 278 279 280 281 282 283 284 285 286 287 288 289 290 290 290 291 291 292 292 292 293 293 293 293 294 295 295 296 296 297 298 298 298 298 297 296 295 294 293 291 290 289 288 288 288 288 287 287 286 285 284 282 282 284 286 287 287 289 290
268 268 268 268 269 269 269 270 271 271 271 271 272 272 272 273 273 274 274 275 275 276 276 276 277 278 278 279 280 281 282 283 283 284 284 286 287 289 289 289 290 290 291 291 292 293 294 294 294 295 295 296 296 297 297 298 299 298 298 298 297 296 295 294 293 292 291 290 289 289 289 288 287 287 286 285 283 282 283 285 286 286 287 288 289
268 268 268 268 268 268 268 268 268 269 269 270 270 270 271 271 272 273 273 273 274 274 275 276 277 278 279 280 281 282 282 283 283 282 283 283 284 285 287 288 289 290 290 291 291 293 294 294 295 296 296 296 296 297 298 298 299 298 298 298 298 297 296 295 294 292 291 290 289 288 287 286 285 285 284 283 282 282 284 285 286 286 287 288 288
267 267 267 266 266 266 266 266 266 266 267 267 268 268 269 270 270 271 272 272 273 273 274 275 276 277 279 280 281 282 282 282 282 282 283 282 282 282 283 285 287 288 289 290 291 292 292 293 294 295 295 296 296 297 297 298 298 298 298 298 298 298 297 297 295 294 292 291 290 288 287 285 285 284 284 283 282 283 285 285 285 285 287 287 287
266 266 266 265 265 265 265 265 265 265 265 265 265 265 266 267 268 269 270 270 271 272 273 274 275 276 277 279 280 281 282 282 283 283 283 282 282 282 282 282 284 285 287 289 290 291 292 293 293 294 294 295 296 296 297 297 298 298 298 299 299 299 298 298 296 295 294 293 291 289 287 286 285 284 283 282 283 285 286 285 285 286 287 287 287
267 266 266 265 264 264 264 264 263 264 264 264 263 263 264 264 265 266 267 268 269 270 271 272 273 274 276 277 278 279 280 281 282 283 283 283 283 283 282 283 283 284 285 287 288 290 291 292 293 293 294 295 295 296 296 297 297 298 298 299 299 299 299 298 297 296 295 294 292 290 287 285 285 284 282 282 284 285 285 285 285 286 287 287 286
268 268 267 266 265 264 263 263 263 263 263 263 263 263 263 264 264 265 266 266 267 269 270 271 272 273 274 275 276 278 279 280 281 282 283 284 284 284 284 284 284 284 284 285 286 287 289 290 291 293 294 294 295 295 296 296 297 298 299 299 300 300 299 298 297 296 295 294 292 290 287 286 284 283 282 283 285 285 284 284 285 286 286 286 284
268 268 268 267 267 266 265 264 264 264 264 264 264 264 265 265 265 265 265 266 267 267 269 270 271 272 273 274 275 276 277 279 280 282 283 284 284 285 285 285 284 284 284 284 285 286 287 288 290 291 292 293 293 294 295 296 297 298 299 299 300 300 300 299 298 297 296 295 293 290 287 285 283 282 283 285 286 285 284 284 284 285 285 284 283
266 267 268 268 268 267 267 266 266 266 265 265 265 266 266 266 266 266 266 266 266 267 267 268 269 270 271 272 273 274 275 277 278 280 281 282 283 284 284 285 285 285 285 285 285 286 287 288 289 290 291 291 292 293 294 296 297 298 299 299 299 300 299 299 299 298 297 295 293 290 288 285 282 282 284 286 285 284 284 284 284 285 284 283 282
265 266 267 268 269 269 268 267 267 267 268 268 267 267 267 268 268 268 268 267 267 266 266 267 268 268 269 270 271 272 273 274 276 277 278 279 281 282 283 284 285 285 285 285 285 286 287 288 289 290 290 291 292 293 294 295 297 298 298 299 299 299 299 299 299 298 297 295 293 290 288 285 283 283 286 286 284 283 283 284 284 284 284 282 281
265 265 266 267 268 269 269 268 268 268 268 269 269 269 269 269 269 270 269 269 268 268 267 267 268 268 268 269 270 271 272 273 274 275 276 278 280 281 282 284 285 285 285 285 285 286 286 287 288 289 290 291 292 293 294 295 296 297 297 298 298 298 299 299 298 297 296 294 292 290 287 284 284 286 288 286 284 283 283 283 283 283 282 281 280
266 266 266 266 266 267 268 269 269 269 269 269 269 269 270 270 270 270 270 270 270 269 268 268 267 268 268 268 269 270 271 271 272 273 275 277 279 281 282 283 284 284 285 285 286 286 286 287 288 288 289 291 292 293 294 295 296 296 297 297 297 298 298 298 298 297 296 294 291 289 286 284 285 287 288 285 284 283 283 283 283 282 281 280 279
267 267 267 267 267 267 267 268 268 269 269 269 269 269 269 269 269 269 269 269 269 269 268 268 267 267 267 268 268 269 270 271 272 273 275 277 279 280 281 282 282 283 284 285 285 286 286 286 287 288 289 290 292 293 294 295 295 296 296 296 297 297 298 298 298 297 295 292 289 286 284 284 286 288 287 284 283 283 282 282 282 282 281 279 278
266 266 267 267 267 267 267 267 267 267 268 268 268 269 269 268 268 268 268 268 268 268 268 268 267 267 267 268 269 270 270 271 273 275 276 277 278 278 279 280 281 282 283 284 284 285 285 286 287 288 289 290 291 292 293 294 295 295 295 296 297 297 298 298 297 296 294 291 287 284 284 285 288 288 287 284 283 282 281 280 280 280 279 278 277
264 264 265 266 266 266 266 267 267 267 267 267 268 268 269 269 269 269 268 268 268 268 268 268 267 267 268 269 270 271 272 273 275 276 276 276 277 278 279 280 281 282 282 283 284 284 285 285 286 288 288 290 291 292 293 294 294 294 294 295 296 297 297 297 296 295 293 289 286 284 285 287 288 288 286 284 283 281 279 279 279 279 278 277 276
263 263 264 265 265 265 265 265 266 266 266 267 267 268 268 269 269 269 269 269 269 269 269 269 270 270 271 271 272 272 273 274 275 275 275 276 277 278 279 280 281 281 282 282 283 283 284 285 286 287 288 289 291 292 292 292 293 293 294 295 296 296 296 295 294 293 291 288 285 285 287 288 288 287 285 284 282 281 279 278 278 278 277 275 273
263 263 263 263 264 264 264 264 264 264 265 265 266 266 267 267 268 268 269 269 269 270 270 271 271 272 272 273 273 274 274 275 275 275 275 276 277 278 279 280 280 281 281 282 282 283 284 285 286 287 288 289 290 291 291 291 292 293 294 294 295 295 294 293 292 291 289 286 285 287 287 287 287 286 285 283 281 280 279 278 277 276 274 273 271
261 261 261 262 262 263 263 263 263 263 263 263 264 264 264 265 266 266 267 267 268 269 269 270 271 272 273 273 274 273 273 274 274 275 276 277 277 278 278 279 279 280 281 281 282 283 284 285 286 287 288 289 289 289 290 290 291 293 293 293 294 293 293 292 290 288 286 285 287 288 288 287 287 286 284 282 280 279 278 278 276 274 272 270 267
260 260 261 261 261 262 262 262 262 262 262 263 263 264 264 265 265 266 266 267 268 268 269 271 272 273 273 272 272 272 273 273 274 274 275 276 276 277 277 278 279 279 280 281 282 283 284 285 285 286 287 287 288 288 289 290 291 292 292 292 292 291 291 290 288 286 285 286 288 289 288 287 287 286 283 280 279 278 277 277 275 273 270 267 264
261 261 261 261 261 261 261 262 263 263 264 265 265 265 265 265 266 266 267 268 269 270 271 272 272 272 272 272 272 272 273 273 273 273 274 275 275 276 276 277 278 279 280 281 281 282 283 284 284 285 286 286 287 288 289 290 290 291 291 290 290 289 289 287 285 284 285 287 289 288 288 287 286 284 282 279 278 277 276 275 273 270 267 264 261
260 261 261 261 262 262 263 264 265 265 265 265 265 265 265 265 266 267 268 269 270 270 271 271 271 271 271 272 272 272 272 273 273 273 274 274 274 275 276 277 277 278 279 280 281 282 282 283 284 284 285 286 286 287 288 289 289 289 289 288 288 287 285 284 283 284 286 287 288 287 286 285 284 282 280 278 277 276 275 273 271 268 264 261 257
261 261 262 262 263 263 264 264 264 264 263 263 263 264 265 266 267 268 268 269 269 269 270 270 270 270 271 271 271 272 272 273 273 273 273 274 275 275 276 276 277 278 279 279 280 281 282 282 283 284 284 285 285 286 287 287 287 287 287 286 285 284 282 282 283 284 286 287 286 285 284 283 282 279 277 276 275 274 273 271 268 264 261 257 254
262 262 262 262 262 262 262 262 262 262 263 263 264 264 265 266 267 267 267 267 268 268 269 269 269 270 270 270 271 271 272 272 272 273 273 274 274 275 275 276 277 277 278 279 280 280 281 282 282 283 283 284 285 285 286 286 286 286 286 285 283 281 281 282 283 286 286 286 285 284 283 281 279 277 275 274 273 272 271 268 265 261 258 254 251
261 261 261 261 261 261 261 262 262 263 263 264 264 265 265 265 265 265 266 266 267 267 268 268 268 269 270 270 270 271 271 271 272 272 273 273 273 274 275 275 276 277 277 278 279 280 280 281 281 282 282 283 284 284 285 285 285 285 284 283 281 281 281 283 285 286 285 284 284 282 281 279 277 274 273 272 271 269 268 265 262 258 254 251 247
261 261 262 262 262 262 262 263 263 263 263 263 264 264 264 264 264 264 264 265 265 266 267 267 268 268 269 269 270 270 270 271 271 271 272 272 273 273 274 274 275 276 277 277 278 278 279 279 280 280 281 282 283 283 284 284 284 283 282 281 281 282 283 284 285 285 284 283 282 281 279 277 275 272 271 269 268 267 265 262 258 255 251 247 243
262 262 262 262 262 262 262 263 263 263 263 263 263 263 263 263 263 263 263 264 264 265 266 267 267 268 268 269 269 269 269 270 270 271 271 272 272 273 273 274 275 275 276 276 276 277 277 278 279 280 281 282 282 283 282 282 281 281 281 281 282 283 284 285 285 285 283 283 282 280 278 276 273 270 268 267 266 264 262 259 255 251 247 243 239
Height
10549 10549 10547 10545 10544 10543 10541 10539 10538 10537 10535 10533 10531 10527 10525 10524 10523 10521 10519 10516 10512 10510 10508 10506 10504 10501 10498 10495 10491 10489 10488 10486 10483 10481 10479 10476 10473 10470 10467 10463 10459 10457 10454 10452 10450 10448 10445 10443 10440 10438 10434 10430 10427 10423 10419 10416 10413 10409 10404 10401 10398 10394 10395 10395 10396 10402 10396 10382 10381 10384 10380 10380 10379 10373 10369 10366 10360 10356 10355 10354 10352 10350 10348 10348 10347
10536 10536 10535 10534 10533 10530 10528 10527 10526 10524 10523 10521 10517 10513 10512 10512 10510 10508 10507 10504 10501 10498 10495 10493 10491 10489 10486 10482 10478 10476 10474 10472 10469 10467 10464 10461 10458 10456 10453 10450 10446 10442 10440 10438 10436 10434 10431 10428 10426 10423 10419 10416 10412 10408 10404 10400 10397 10395 10389 10385 10383 10379 10378 10379 10378 10382 10384 10373 10363 10364 10365 10365 10363 10357 10352 10352 10348 10344 10344 10340 10336 10335 10334 10333 10332
10520 10521 10522 10521 10519 10517 10515 10514 10512 10510 10509 10507 10503 10499 10498 10498 10496 10494 10492 10490 10488 10485 10482 10481 10479 10476 10473 10469 10466 10463 10460 10458 10455 10452 10449 10446 10444 10442 10439 10435 10431 10428 10426 10424 10422 10419 10416 10413 10411 10408 10404 10401 10397 10392 10389 10386 10382 10379 10375 10370 10368 10366 10362 10362 10361 10362 10367 10365 10352 10347 10350 10349 10346 10340 10335 10334 10333 10332 10331 10325 10320 10320 10320 10319 10316
10504 10506 10507 10507 10505 10504 10502 10499 10496 10495 10494 10491 10488 10486 10485 10483 10481 10478 10477 10475 10473 10471 10470 10468 10466 10463 10460 10456 10453 10450 10447 10444 10441 10439 10435 10433 10430 10428 10424 10421 10417 10415 10412 10409 10407 10405 10402 10399 10396 10393 10389 10386 10382 10378 10374 10371 10367 10363 10360 10356 10353 10352 10348 10347 10346 10345 10349 10351 10343 10334 10334 10335 10332 10324 10319 10318 10317 10315 10313 10310 10306 10305 10304 10302 10300
10488 10489 10490 10490 10490 10491 10489 10485 10483 10480 10477 10474 10473 10472 10470 10468 10465 10462 10461 10459 10456 10456 10455 10453 10451 10448 10445 10442 10439 10436 10433 10431 10428 10425 10422 10420 10417 10414 10411 10407 10404 10401 10398 10396 10393 10390 10387 10385 10382 10378 10375 10370 10366 10363 10359 10355 10352 10347 10344 10341 10338 10336 10334 10332 10331 10331 10331 10334 10332 10323 10319 10319 10319 10310 10302 10304 10305 10299 10295 10294 10292 10291 10290 10286 10282
10472 10472 10472 10474 10475 10475 10473 10470 10467 10464 10461 10460 10458 10457 10455 10452 10449 10447 10445 10442 10441 10440 10439 10437 10435 10433 10430 10427 10424 10422 10419 10417 10414 10411 10409 10407 10404 10401 10398 10394 10391 10388 10385 10382 10378 10375 10372 10369 10367 10363 10359 10356 10351 10347 10343 10339 10337 10333 10328 10326 10324 10322 10320 10318 10316 10316 10316 10316 10316 10313 10307 10303 10302 10295 10287 10288 10291 10286 10282 10282 10279 10274 10273 10272 10268
10457 10458 10458 10458 10459 10459 10457 10454 10451 10448 10447 10445 10442 10440 10437 10435 10433 10430 10428 10426 10425 10423 10422 10420 10418 10416 10414 10412 10409 10407 10404 10402 10399 10397 10395 10393 10390 10388 10385 10381 10378 10374 10370 10367 10363 10360 10356 10353 10351 10346 10342 10339 10335 10330 10327 10324 10320 10317 10314 10312 10311 10308 10306 10304 10302 10301 10300 10300 10299 10298 10295 10289 10283 10279 10274 10271 10272 10269 10266 10270 10271 10263 10256 10255 10253
10446 10446 10445 10444 10443 10442 10439 10437 10435 10434 10432 10429 10427 10423 10420 10419 10417 10414 10411 10410 10408 10407 10405 10403 10401 10399 10398 10396 10394 10392 10389 10387 10384 10382 10380 10379 10376 10374 10371 10367 10364 10359 10355 10351 10347 10343 10340 10336 10333 10330 10326 10322 10319 10315 10312 10308 10305 10302 10300 10298 10296 10294 10291 10289 10287 10285 10284 10284 10283 10280 10279 10274 10265 10262 10260 10255 10254 10254 10249 10248 10255 10253 10245 10242 10238
10433 10432 10429 10428 10426 10424 10423 10422 10420 10418 10415 10413 10410 10407 10405 10403 10401 10398 10396 10395 10393 10391 10389 10386 10384 10382 10381 10378 10376 10375 10373 10371 10369 10367 10366 10364 10361 10359 10356 10352 10348 10344 10339 10335 10331 10327 10324 10320 10316 10313 10310 10306 10302 10299 10296 10293 10291 10288 10286 10284 10282 10279 10277 10274 10273 10271 10269 10269 10268 10264 10262 10258 10249 10246 10246 10240 10235 10238 10235 10230 10232 10233 10228 10228 10227
10417 10414 10411 10410 10408 10407 10409 10408 10405 10402 10399 10396 10394 10391 10389 10387 10385 10384 10382 10380 10378 10376 10373 10370 10368 10365 10363 10361 10359 10357 10356 10355 10354 10353 10351 10349 10345 10342 10339 10335 10331 10327 10322 10318 10315 10312 10308 10305 10300 10296 10293 10290 10287 10284 10281 10278 10277 10274 10272 10270 10267 10263 10261 10258 10256 10255 10255 10254 10252 10247 10245 10242 10234 10229 10229 10226 10220 10220 10219 10214 10214 10213 10208 10209 10213
10397 10394 10391 10389 10387 10389 10391 10390 10388 10387 10384 10382 10379 10376 10374 10373 10371 10370 10368 10366 10363 10360 10357 10354 10351 10347 10345 10344 10342 10341 10340 10340 10340 10339 10335 10332 10329 10325 10322 10319 10315 10311 10307 10302 10299 10297 10293 10289 10285 10281 10277 10275 10272 10269 10266 10264 10262 10260 10258 10255 10252 10249 10245 10243 10241 10239 10239 10239 10235 10230 10228 10227 10221 10213 10210 10209 10206 10204 10201 10198 10196 10194 10192 10190 10193
10378 10374 10372 10370 10369 10371 10372 10372 10372 10370 10368 10365 10363 10361 10360 10358 10357 10355 10353 10351 10348 10345 10342 10338 10334 10331 10329 10327 10326 10325 10325 10326 10324 10322 10318 10315 10312 10308 10305 10302 10298 10294 10291 10288 10285 10281 10278 10274 10270 10266 10263 10261 10259 10255 10253 10251 10248 10246 10244 10240 10238 10235 10231 10228 10226 10225 10225 10224 10220 10215 10210 10210 10208 10200 10194 10192 10191 10190 10187 10184 10180 10175 10176 10174 10172
10364 10361 10358 10356 10356 10356 10356 10357 10358 10356 10354 10351 10348 10347 10346 10344 10342 10340 10337 10334 10332 10329 10327 10323 10319 10316 10312 10310 10310 10310 10310 10309 10307 10304 10301 10298 10295 10292 10289 10285 10282 10279 10276 10273 10270 10266 10263 10260 10256 10252 10249 10247 10245 10242 10240 10238 10235 10232 10230 10226 10223 10219 10216 10212 10209 10209 10210 10207 10206 10203 10195 10192 10193 10188 10180 10176 10175 10176 10175 10173 10169 10161 10159 10159 10156
10353 10350 10348 10346 10344 10343 10342 10343 10344 10343 10341 10339 10336 10334 10333 10330 10328 10325 10321 10318 10315 10312 10309 10306 10302 10298 10294 10294 10295 10294 10293 10291 10290 10288 10286 10283 10280 10276 10273 10270 10267 10265 10262 10259 10256 10252 10249 10246 10242 10239 10236 10233 10231 10228 10226 10224 10222 10218 10214 10211 10208 10204 10200 10196 10192 10192 10192 10189 10189 10189 10181 10176 10175 10172 10167 10160 10156 10157 10157 10157 10156 10148 10143 10143 10141
10342 10339 10336 10334 10330 10327 10326 10326 10327 10327 10325 10324 10322 10321 10319 10316 10313 10309 10305 10302 10299 10296 10293 10290 10286 10281 10279 10280 10280 10279 10277 10276 10275 10273 10270 10268 10266 10262 10258 10255 10253 10251 10248 10244 10241 10238 10235 10233 10228 10225 10222 10219 10216 10214 10213 10211 10208 10205 10201 10196 10193 10189 10184 10180 10177 10175 10173 10170 10170 10169 10164 10159 10155 10151 10148 10143 10138 10135 10134 10136 10136 10128 10126 10128 10125
10328 10324 10321 10317 10313 10310 10308 10308 10309 10310 10309 10308 10308 10307 10304 10302 10298 10293 10290 10288 10285 10283 10280 10276 10272 10268 10267 10268 10267 10265 10264 10262 10260 10258 10256 10254 10252 10248 10244 10241 10239 10237 10233 10229 10226 10223 10221 10218 10215 10212 10208 10205 10202 10200 10199 10198 10195 10191 10187 10182 10179 10175 10170 10166 10163 10160 10157 10155 10153 10151 10148 10144 10139 10134 10128 10123 10120 10115 10113 10117 10114 10105 10105 10109 10110
10311 10307 10304 10299 10295 10292 10291 10291 10292 10292 10292 10293 10292 10291 10288 10286 10283 10278 10275 10274 10272 10270 10267 10262 10257 10254 10254 10254 10253 10251 10249 10247 10245 10243 10241 10239 10238 10235 10231 10228 10225 10222 10218 10215 10211 10208 10206 10203 10201 10199 10195 10191 10188 10186 10184 10183 10182 10178 10174 10170 10165 10161 10156 10152 10149 10145 10142 10140 10138 10135 10133 10129 10125 10121 10113 10105 10101 10096 10093 10098 10096 10088 10088 10090 10091
10294 10292 10288 10284 10280 10277 10275 10275 10275 10274 10275 10276 10276 10275 10272 10270 10267 10263 10260 10259 10258 10255 10252 10248 10244 10241 10240 10239 10238 10236 10235 10233 10230 10228 10226 10225 10224 10221 10217 10215 10212 10209 10205 10201 10198 10194 10191 10188 10186 10184 10181 10177 10174 10172 10170 10168 10167 10164 10160 10157 10153 10147 10143 10140 10136 10132 10128 10126 10123 10119 10117 10114 10110 10107 10101 10091 10084 10077 10073 10074 10073 10069 10070 10072 10071
10276 10275 10272 10269 10266 10263 10261 10259 10259 10258 10259 10260 10259 10257 10255 10253 10251 10248 10245 10244 10243 10240 10238 10235 10231 10228 10227 10226 10224 10222 10221 10219 10217 10215 10213 10212 10209 10206 10203 10201 10198 10195 10192 10188 10184 10180 10176 10174 10171 10169 10166 10163 10160 10157 10155 10153 10153 10150 10146 10144 10140 10135 10131 10127 10123 10119 10116 10113 10110 10105 10101 10098 10094 10092 10088 10080 10071 10063 10054 10050 10050 10048 10050 10054 10051
10257 10256 10254 10252 10250 10249 10246 10244 10244 10244 10243 10244 10243 10241 10239 10236 10234 10232 10230 10229 10228 10226 10224 10222 10218 10215 10214 10212 10211 10209 10207 10206 10204 10202 10200 10198 10195 10192 10189 10186 10183 10181 10178 10175 10171 10167 10163 10160 10157 10154 10151 10149 10146 10144 10142 10140 10138 10136 10133 10130 10127 10123 10120 10116 10111 10107 10105 10101 10098 10094 10089 10086 10082 10078 10074 10068 10061 10052 10042 10035 10031 10030 10032 10037 10037
10235 10235 10235 10234 10233 10232 10231 10229 10228 10228 10227 10227 10226 10225 10223 10220 10217 10215 10214 10214 10213 10211 10209 10207 10205 10202 10200 10199 10198 10196 10195 10194 10191 10189 10186 10183 10181 10178 10174 10171 10169 10167 10164 10161 10157 10153 10150 10146 10142 10139 10137 10135 10132 10130 10128 10126 10124 10123 10120 10117 10115 10112 10109 10106 10101 10096 10093 10089 10086 10082 10078 10074 10070 10065 10060 10056 10049 10040 10031 10024 10019 10016 10017 10021 10022
10211 10213 10215 10216 10215 10214 10214 10213 10211 10210 10208 10208 10207 10207 10206 10204 10202 10199 10198 10199 10198 10197 10195 10192 10190 10188 10187 10186 10185 10183 10182 10180 10177 10174 10171 10169 10167 10164 10160 10157 10155 10152 10148 10145 10141 10138 10136 10132 10129 10125 10123 10120 10118 10115 10114 10112 10110 10108 10106 10104 10103 10101 10098 10095 10091 10086 10082 10077 10075 10071 10066 10062 10059 10054 10048 10042 10035 10026 10018 10013 10008 10005 10004 10004 10005
10193 10194 10195 10196 10197 10196 10196 10195 10193 10192 10190 10189 10188 10188 10189 10188 10186 10184 10183 10184 10184 10182 10180 10178 10175 10173 10172 10171 10170 10168 10166 10164 10162 10159 10157 10154 10153 10151 10146 10143 10140 10137 10133 10129 10126 10124 10122 10119 10115 10112 10109 10106 10103 10101 10100 10098 10096 10094 10092 10090 10089 10087 10085 10082 10079 10075 10071 10067 10063 10060 10055 10050 10047 10043 10036 10030 10023 10014 10006 10001 9998 9996 9994 9991 9990
10177 10179 10178 10179 10179 10178 10177 10177 10177 10176 10174 10172 10171 10171 10171 10171 10170 10170 10169 10169 10169 10168 10166 10163 10161 10159 10158 10156 10154 10152 10151 10149 10147 10145 10142 10139 10137 10135 10132 10129 10126 10123 10118 10114 10112 10110 10108 10105 10101 10098 10095 10092 10090 10087 10085 10084 10083 10081 10079 10076 10074 10072 10070 10068 10066 10063 10059 10055 10052 10048 10044 10039 10034 10030 10024 10017 10010 10002 9995 9991 9988 9986 9983 9980 9978
10159 10161 10162 10162 10161 10161 10160 10161 10161 10160 10158 10156 10154 10154 10153 10154 10154 10155 10154 10154 10153 10152 10150 10148 10146 10144 10143 10142 10139 10137 10136 10135 10133 10130 10126 10123 10121 10119 10118 10114 10111 10108 10104 10100 10098 10096 10094 10091 10088 10085 10082 10079 10076 10074 10071 10070 10068 10067 10065 10063 10061 10058 10056 10054 10053 10050 10047 10044 10040 10035 10032 10027 10021 10016 10011 10004 9997 9989 9983 9981 9979 9976 9971 9968 9968
10139 10141 10143 10144 10144 10144 10144 10145 10144 10143 10141 10139 10138 10137 10137 10138 10138 10139 10139 10138 10137 10136 10134 10132 10131 10129 10128 10126 10124 10123 10122 10121 10120 10117 10111 10107 10104 10103 10102 10099 10096 10093 10090 10086 10083 10081 10079 10078 10075 10073 10070 10067 10063 10060 10057 10055 10054 10053 10051 10050 10048 10046 10044 10042 10040 10038 10035 10032 10027 10023 10019 10014 10009 10004 9998 9991 9983 9976 9971 9971 9971 9965 9959 9957 9958
10120 10122 10124 10126 10127 10127 10128 10128 10127 10125 10124 10122 10122 10122 10122 10122 10122 10123 10123 10122 10120 10119 10118 10116 10114 10112 10110 10109 10108 10107 10107 10107 10106 10103 10099 10095 10091 10087 10085 10083 10080 10079 10077 10072 10068 10067 10065 10062 10060 10059 10056 10054 10050 10046 10043 10041 10039 10038 10038 10037 10035 10033 10031 10029 10027 10024 10022 10019 10015 10011 10006 10002 9997 9992 9986 9978 9971 9964 9959 9959 9958 9954 9948 9947 9949
10102 10104 10107 10109 10111 10111 10111 10111 10110 10109 10108 10107 10107 10107 10107 10107 10107 10107 10106 10104 10103 10102 10101 10099 10098 10095 10093 10091 10091 10091 10091 10091 10089 10088 10086 10085 10081 10076 10071 10068 10065 10064 10062 10058 10055 10053 10051 10048 10046 10044 10043 10040 10037 10033 10030 10028 10026 10025 10024 10023 10022 10020 10018 10016 10013 10010 10008 10005 10002 9998 9993 9989 9984 9979 9973 9965 9958 9953 9950 9947 9944 9941 9938 9937 9937
10085 10088 10091 10093 10095 10095 10094 10095 10095 10095 10094 10094 10094 10093 10093 10092 10092 10091 10090 10088 10086 10085 10085 10084 10083 10080 10077 10076 10075 10074 10074 10073 10072 10072 10072 10071 10069 10066 10062 10057 10053 10051 10048 10044 10042 10041 10039 10036 10034 10032 10030 10027 10025 10021 10019 10016 10013 10012 10011 10010 10008 10007 10005 10002 9999 9996 9994 9991 9988 9984 9980 9975 9970 9965 9959 9952 9946 9943 9940 9936 9932 9929 9927 9927 9926
10069 10072 10076 10078 10079 10079 10079 10080 10080 10080 10081 10080 10080 10079 10079 10078 10077 10077 10076 10074 10071 10070 10071 10071 10069 10066 10065 10063 10061 10059 10057 10055 10054 10056 10055 10054 10053 10053 10051 10048 10045 10041 10036 10031 10029 10028 10026 10024 10022 10020 10017 10015 10012 10009 10007 10004 10001 9999 9998 9997 9995 9993 9991 9988 9985 9982 9979 9976 9972 9969 9965 9961 9957 9952 9945 9939 9936 9933 9928 9923 9920 9918 9916 9915 9914
10051 10055 10059 10061 10063 10064 10064 10065 10065 10065 10065 10065 10065 10065 10064 10064 10063 10064 10063 10062 10059 10058 10059 10058 10057 10055 10054 10052 10049 10046 10043 10041 10040 10039 10037 10036 10037 10038 10036 10034 10033 10029 10025 10021 10018 10015 10013 10011 10009 10007 10005 10002 9999 9997 9994 9992 9989 9987 9985 9983 9982 9980 9977 9974 9971 9968 9965 9961 9957 9953 9949 9946 9943 9938 9932 9928 9926 9923 9917 9911 9908 9907 9905 9904 9903
10032 10036 10039 10041 10044 10047 10048 10049 10050 10050 10050 10050 10049 10049 10049 10050 10051 10051 10050 10049 10048 10047 10047 10046 10045 10045 10044 10041 10038 10034 10031 10029 10026 10022 10020 10019 10020 10020 10019 10019 10017 10014 10013 10010 10007 10004 10002 9999 9996 9994 9992 9989 9986 9984 9982 9979 9977 9975 9972 9970 9968 9966 9964 9961 9958 9955 9951 9948 9943 9939 9935 9932 9928 9924 9920 9917 9915 9911 9906 9900 9897 9897 9895 9893 9892
10016 10018 10020 10022 10025 10028 10031 10033 10034 10034 10034 10034 10033 10034 10035 10036 10037 10037 10037 10037 10038 10037 10036 10035 10034 10033 10031 10028 10026 10022 10018 10015 10012 10008 10005 10003 10003 10003 10003 10002 10000 9999 9998 9997 9994 9992 9990 9987 9985 9982 9980 9977 9974 9971 9969 9967 9965 9963 9961 9958 9956 9953 9951 9948 9945 9941 9938 9934 9930 9926 9922 9918 9914 9911 9909 9907 9903 9898 9894 9889 9887 9886 9885 9882 9881
10001 10003 10004 10006 10008 10011 10013 10015 10016 10017 10018 10018 10018 10019 10019 10020 10021 10022 10024 10026 10026 10026 10025 10024 10023 10021 10018 10015 10013 10009 10006 10003 10000 9996 9991 9988 9988 9989 9988 9986 9985 9984 9983 9981 9980 9979 9977 9975 9972 9970 9968 9965 9962 9959 9957 9955 9953 9951 9949 9946 9944 9941 9938 9935 9932 9929 9925 9920 9916 9912 9907 9903 9900 9900 9900 9897 9892 9886 9881 9878 9876 9876 9875 9873 9870
9987 9989 9989 9991 9993 9995 9997 9998 9999 10000 10001 10002 10002 10003 10003 10003 10005 10006 10008 10010 10011 10012 10012 10011 10009 10007 10003 10001 9998 9996 9993 9991 9987 9982 9977 9975 9975 9975 9973 9971 9971 9970 9968 9966 9965 9964 9963 9961 9959 9957 9954 9952 9949 9946 9944 9943 9941 9939 9937 9934 9931 9929 9926 9923 9920 9916 9912 9908 9902 9897 9893 9888 9886 9888 9889 9886 9881 9875 9871 9867 9865 9865 9864 9862 9860
9973 9975 9976 9977 9979 9980 9981 9982 9983 9984 9985 9985 9985 9986 9987 9988 9989 9989 9991 9992 9993 9995 9996 9995 9994 9991 9987 9985 9984 9981 9979 9977 9973 9968 9963 9962 9963 9963 9960 9958 9957 9955 9953 9952 9951 9950 9949 9948 9946 9944 9941 9938 9936 9934 9932 9930 9929 9927 9925 9922 9920 9917 9914 9911 9907 9903 9899 9895 9889 9883 9878 9875 9875 9877 9878 9874 9869 9864 9860 9857 9855 9854 9854 9852 9849
9957 9959 9960 9962 9964 9964 9966 9967 9967 9968 9968 9968 9968 9969 9970 9971 9972 9973 9973 9974 9975 9977 9978 9977 9976 9973 9971 9969 9968 9966 9965 9962 9957 9953 9950 9950 9951 9950 9948 9945 9943 9940 9938 9938 9937 9936 9936 9934 9932 9930 9927 9925 9923 9921 9919 9918 9916 9914 9912 9910 9908 9906 9902 9899 9895 9891 9888 9884 9878 9870 9865 9863 9865 9867 9866 9862 9858 9854 9849 9846 9845 9845 9843 9842 9840
9941 9942 9943 9945 9947 9948 9950 9952 9952 9952 9951 9951 9952 9953 9954 9955 9956 9956 9957 9958 9958 9959 9959 9959 9958 9956 9954 9953 9952 9952 9950 9946 9941 9939 9940 9941 9940 9937 9934 9932 9929 9927 9926 9925 9924 9923 9922 9920 9918 9916 9914 9912 9910 9908 9907 9905 9904 9902 9900 9898 9895 9893 9890 9887 9883 9879 9876 9872 9866 9858 9854 9854 9856 9856 9854 9850 9848 9845 9840 9837 9836 9835 9833 9831 9831
9926 9925 9926 9928 9931 9932 9934 9935 9936 9936 9936 9936 9937 9937 9937 9938 9939 9940 9941 9941 9941 9942 9942 9942 9940 9939 9938 9938 9938 9937 9933 9929 9928 9930 9931 9929 9926 9922 9920 9918 9916 9915 9914 9914 9912 9910 9908 9906 9905 9903 9901 9899 9898 9896 9894 9893 9891 9889 9887 9885 9883 9881 9878 9875 9871 9867 9863 9859 9854 9847 9843 9844 9846 9845 9842 9839 9837 9835 9831 9828 9827 9827 9825 9822 9821
9910 9910 9911 9913 9915 9917 9918 9919 9920 9921 9920 9920 9920 9920 9920 9921 9921 9922 9923 9923 9924 9925 9925 9924 9922 9922 9923 9924 9925 9921 9917 9916 9918 9920 9918 9914 9911 9909 9907 9905 9904 9903 9903 9901 9899 9897 9895 9893 9891 9889 9888 9886 9885 9883 9882 9880 9878 9876 9875 9873 9872 9870 9867 9863 9860 9856 9851 9847 9842 9837 9834 9834 9835 9834 9831 9828 9826 9824 9822 9820 9819 9817 9816 9814 9814
9893 9894 9896 9898 9899 9902 9904 9905 9906 9906 9905 9904 9904 9904 9905 9905 9904 9905 9906 9906 9907 9908 9908 9906 9906 9907 9908 9909 9909 9906 9905 9905 9906 9904 9902 9900 9898 9896 9894 9893 9892 9891 9890 9888 9886 9884 9882 9880 9878 9876 9874 9873 9872 9871 9870 9868 9867 9865 9863 9862 9861 9859 9856 9852 9848 9844 9839 9834 9831 9828 9825 9823 9824 9824 9821 9818 9815 9813 9812 9812 9811 9808 9806 9806 9807
9879 9880 9881 9882 9884 9887 9888 9889 9890 9890 9889 9889 9889 9889 9890 9890 9890 9890 9891 9891 9891 9892 9892 9892 9892 9892 9893 9894 9893 9893 9892 9891 9889 9888 9887 9886 9885 9884 9883 9881 9880 9878 9877 9875 9873 9871 9869 9867 9865 9863 9861 9860 9860 9859 9858 9856 9855 9853 9852 9850 9849 9847 9844 9841 9836 9832 9827 9823 9821 9819 9816 9813 9813 9814 9811 9808 9806 9804 9803 9803 9803 9800 9798 9799 9799
9865 9866 9867 9868 9871 9872 9873 9874 9874 9874 9875 9875 9876 9876 9876 9877 9877 9878 9877 9877 9878 9878 9878 9878 9878 9879 9880 9880 9879 9878 9877 9877 9876 9875 9874 9873 9872 9871 9870 9869 9868 9866 9864 9862 9860 9858 9856 9854 9852 9851 9849 9848 9847 9846 9845 9844 9844 9842 9841 9839 9837 9835 9832 9829 9825 9820 9816 9813 9812 9810 9807 9803 9803 9803 9801 9798 9797 9796 9794 9794 9794 9792 9791 9791 9792
9852 9854 9855 9856 9858 9859 9859 9859 9859 9860 9862 9863 9863 9864 9865 9865 9865 9865 9865 9865 9865 9865 9864 9864 9865 9866 9865 9864 9863 9864 9864 9864 9864 9863 9861 9860 9860 9859 9858 9857 9855 9853 9851 9849 9848 9846 9844 9842 9841 9839 9837 9836 9834 9833 9833 9833 9832 9831 9830 9827 9825 9822 9820 9817 9813 9808 9805 9805 9804 9801 9797 9794 9793 9793 9791 9789 9788 9787 9786 9786 9786 9784 9783 9784 9785
9840 9841 9842 9843 9844 9845 9845 9845 9846 9848 9851 9852 9852 9852 9852 9852 9851 9851 9851 9851 9851 9850 9850 9851 9851 9850 9849 9850 9850 9851 9851 9850 9850 9850 9849 9848 9847 9846 9845 9844 9842 9840 9839 9837 9835 9833 9832 9830 9829 9827 9825 9824 9822 9821 9821 9821 9821 9820 9818 9816 9814 9811 9808 9805 9801 9797 9796 9796 9795 9792 9788 9785 9784 9783 9782 9780 9779 9778 9778 9778 9777 9776 9776 9777 9778
9827 9827 9828 9829 9831 9832 9834 9834 9835 9837 9839 9838 9838 9837 9837 9836 9836 9837 9837 9837 9837 9836 9836 9837 9836 9836 9836 9837 9837 9837 9836 9836 9836 9836 9836 9835 9834 9833 9832 9831 9829 9828 9826 9825 9823 9822 9820 9818 9816 9815 9813 9812 9811 9810 9810 9810 9810 9809 9807 9805 9803 9800 9796 9793 9790 9788 9787 9786 9785 9782 9779 9777 9775 9774 9773 9771 9770 9770 9770 9770 9770 9769 9769 9770 9771
9815 9815 9816 9818 9819 9821 9822 9822 9822 9823 9823 9823 9822 9822 9822 9822 9823 9823 9824 9824 9824 9823 9823 9823 9824 9824 9825 9824 9823 9823 9823 9823 9822 9822 9822 9822 9821 9820 9819 9817 9816 9815 9814 9812 9811 9809 9808 9806 9804 9803 9801 9800 9800 9800 9800 9799 9798 9796 9795 9793 9791 9787 9784 9781 9780 9778 9777 9776 9775 9773 9770 9768 9767 9765 9764 9763 9762 9762 9762 9762 9762 9762 9762 9764 9765
9803 9803 9804 9806 9807 9807 9808 9808 9808 9808 9809 9809 9809 9809 9810 9810 9811 9811 9811 9811 9811 9811 9811 9811 9811 9812 9812 9811 9811 9811 9810 9809 9808 9808 9808 9808 9808 9807 9806 9805 9804 9803 9801 9800 9798 9797 9795 9794 9793 9791 9789 9789 9789 9789 9788 9788 9786 9784 9783 9780 9777 9774 9772 9770 9770 9768 9767 9766 9765 9763 9761 9760 9759 9757 9755 9754 9754 9754 9754 9755 9755 9755 9756 9757 9759
9790 9791 9791 9792 9793 9794 9795 9795 9796 9796 9797 9797 9797 9798 9799 9799 9799 9799 9799 9799 9799 9799 9799 9799 9799 9799 9799 9798 9798 9798 9797 9796 9796 9796 9796 9795 9795 9794 9794 9793 9792 9790 9789 9788 9787 9785 9784 9782 9781 9780 9779 9778 9777 9777 9777 9776 9774 9773 9770 9767 9764 9762 9760 9760 9759 9758 9757 9756 9755 9754 9752 9751 9750 9749 9747 9746 9747 9747 9747 9748 9748 9749 9750 9752 9753
9778 9779 9780 9781 9782 9782 9783 9784 9785 9785 9785 9786 9787 9787 9787 9787 9788 9788 9788 9788 9788 9787 9787 9787 9787 9786 9786 9786 9785 9785 9784 9784 9784 9784 9784 9784 9783 9782 9782 9781 9780 9779 9778 9777 9775 9774 9773 9772 9771 9770 9769 9767 9767 9766 9765 9764 9762 9761 9758 9755 9752 9750 9749 9749 9749 9748 9747 9746 9746 9745 9743 9742 9741 9740 9739 9738 9739 9740 9740 9741 9742 9743 9744 9746 9747
9767 9768 9769 9770 9771 9772 9773 9774 9774 9774 9775 9775 9776 9776 9776 9776 9776 9776 9776 9776 9776 9776 9776 9775 9775 9774 9774 9774 9774 9773 9773 9773 9773 9773 9772 9772 9771 9771 9771 9770 9769 9768 9767 9766 9765 9763 9762 9761 9760 9759 9758 9757 9756 9754 9753 9752 9750 9748 9746 9743 9741 9739 9738 9738 9738 9737 9737 9737 9737 9736 9735 9733 9732 9732 9731 9731 9732 9733 9734 9735 9736 9737 9738 9740 9742